Ketchikan, AK

3:05 AM AKST on January 21, 2019 (GMT -0900)
Ketchikan International

Weather History for PAKT - November, 2018

Change the Weather History Date:

Monday, November 12, 2018

  Actual Average Record
Temperature  
Mean Temperature 45 °F -  
Max Temperature 51 °F 45 °F 57 °F (2002)
Min Temperature 39 °F 35 °F 13 °F (1955)
Degree Days  
Heating Degree Days 20    
Moisture  
Dew Point 35 °F    
Average Humidity 68    
Maximum Humidity 93    
Minimum Humidity 44    
Precipitation  
Precipitation 0.00 in - - ()
Sea Level Pressure  
Sea Level Pressure 30.17 in    
Wind  
Wind Speed 8 mph (SE)    
Max Wind Speed 16 mph    
Max Gust Speed -    
Visibility 10 miles    
Events Rain    
Averages and records for this station are not official NWS values.
T = Trace of Precipitation, MM = Missing Value Source: NWS Daily Summary

Daily Weather History Graph

Daily Weather History Graph

Search for Another Location

Airport or City:

Astronomy

Nov. 12, 2018 Rise Set
Actual Time 7:14 AM AKST 3:46 PM AKST
Civil Twilight 6:33 AM AKST 4:27 PM AKST
Nautical Twilight 5:49 AM AKST 5:11 PM AKST
Astronomical Twilight 5:06 AM AKST 5:54 PM AKST
Moon 12:05 PM AKST (11/12) 7:49 PM AKST (11/12)
Length of Visible Light 9h 53m
Length of Day
8h 31m
Waxing Crescent, 25% of the Moon is Illuminated
Nov 12
Waxing Crescent
Nov 15
First Quarter
Nov 22
Full
Nov 29
Last Quarter
Dec 6
New

Hourly Weather History & Observations

Time (AKST) Temp. Windchill Dew Point Humidity Pressure Visibility Wind Dir Wind Speed Gust Speed Precip Events Conditions
12:53 AM 42.1 °F 37.7 °F 39.0 °F 89% 30.37 in 10.0 mi SE 6.9 mph - N/A   Clear
1:53 AM 42.1 °F 38.4 °F 37.9 °F 85% 30.35 in 10.0 mi SSE 5.8 mph - N/A   Clear
2:53 AM 43.0 °F 39.5 °F 39.0 °F 86% 30.33 in 10.0 mi ESE 5.8 mph - N/A   Mostly Cloudy
3:53 AM 42.1 °F 37.7 °F 39.0 °F 89% 30.32 in 10.0 mi SE 6.9 mph - N/A   Clear
4:53 AM 41.0 °F 37.1 °F 37.9 °F 89% 30.30 in 10.0 mi ESE 5.8 mph - N/A   Clear
5:53 AM 42.1 °F 37.7 °F 37.9 °F 85% 30.27 in 10.0 mi SE 6.9 mph - N/A   Clear
6:04 AM 42.1 °F 37.7 °F 37.9 °F 85% 30.27 in 10.0 mi SE 6.9 mph - N/A   Clear
6:53 AM 41.0 °F 38.0 °F 37.0 °F 86% 30.27 in 10.0 mi SE 4.6 mph - N/A   Clear
7:53 AM 39.2 °F 35.0 °F 37.4 °F 93% 30.26 in 10.0 mi SE 5.8 mph - N/A   Clear
8:53 AM 41.0 °F 35.8 °F 37.4 °F 87% 30.24 in 10.0 mi ESE 8.1 mph - N/A   Clear
9:53 AM 44.6 °F 39.2 °F 37.4 °F 76% 30.22 in 10.0 mi SE 10.4 mph - N/A   Clear
10:53 AM 45.0 °F 40.1 °F 37.9 °F 76% 30.21 in 10.0 mi ESE 9.2 mph - N/A   Clear
11:53 AM 46.4 °F 42.4 °F 37.4 °F 71% 30.19 in 10.0 mi ESE 8.1 mph - N/A   Clear
12:53 PM 48.2 °F - 37.4 °F 66% 30.15 in 10.0 mi ESE 5.8 mph - N/A   Clear
1:53 PM 51.1 °F - 33.1 °F 50% 30.12 in 10.0 mi SSE 9.2 mph - N/A   Clear
2:53 PM 51.1 °F - 30.0 °F 44% 30.10 in 10.0 mi South 9.2 mph - N/A   Clear
3:53 PM 50.0 °F - 30.9 °F 48% 30.07 in 10.0 mi SSE 12.7 mph - N/A   Scattered Clouds
4:53 PM 50.0 °F - 32.0 °F 50% 30.06 in 10.0 mi South 10.4 mph - N/A   Clear
5:53 PM 51.1 °F - 30.9 °F 46% 30.05 in 10.0 mi SSE 9.2 mph - N/A   Clear
6:53 PM 48.9 °F - 30.9 °F 50% 30.06 in 10.0 mi SSE 5.8 mph - N/A   Clear
7:53 PM 50.0 °F - 33.1 °F 52% 30.05 in 10.0 mi SSE 10.4 mph - N/A   Clear
8:53 PM 50.0 °F - 32.0 °F 50% 30.04 in 10.0 mi South 8.1 mph - N/A   Mostly Cloudy
9:53 PM 50.0 °F - 32.0 °F 50% 30.01 in 10.0 mi South 9.2 mph - N/A   Scattered Clouds
10:53 PM 51.1 °F - 32.0 °F 48% 29.97 in 10.0 mi SSE 16.1 mph - N/A   Overcast
11:53 PM 48.9 °F - 33.1 °F 54% 29.94 in 10.0 mi South 10.4 mph - 0.00 in Rain Light Rain